^^
Daily Summary for October 25, 2021 Units:  English    Metric   Both
Daily Weekly Monthly Yearly Custom
  High: Low: Average:
Temperature: 58.0 °F 46.0 °F 51.1 °F
Dew Point: 51.0 °F 43.0 °F 47.2 °F
Humidity: 95% 64% 87%
Wind Speed: 20mph 0mph 5.3mph
Wind Gust: 20mph - -
Wind- - SSE
Pressure: 30.1 in 29.7 in -
Precipitation: 1.610 in    
Historical Graphs
 
 
Tabular Data for October 25, 2021
Time Temperature Dew Point Pressure Wind Wind Speed Wind Gust Humidity Rainfall Rate (Hourly) solar
00:04 51.0 °F 50.0 °F 29.7 in SSE 6 mph 2 mph 95% 0.280 in 0.00 W/m2
00:09 51.0 °F 50.0 °F 29.7 in SSE 4 mph 6 mph 95% 0.280 in 0.00 W/m2
00:14 51.0 °F 50.0 °F 29.8 in SSE 2 mph 3 mph 95% 0.270 in 0.00 W/m2
00:19 51.0 °F 50.0 °F 29.7 in SSE 2 mph 1 mph 95% 0.270 in 0.00 W/m2
00:24 51.0 °F 50.0 °F 29.8 in SSE 2 mph 2 mph 95% 0.270 in 0.00 W/m2
00:29 51.0 °F 50.0 °F 29.8 in SSE 4 mph 2 mph 95% 0.270 in 0.00 W/m2
00:34 51.0 °F 50.0 °F 29.8 in SSE 4 mph 3 mph 95% 0.280 in 0.00 W/m2
00:39 51.0 °F 50.0 °F 29.8 in SSW 5 mph 3 mph 95% 0.270 in 0.00 W/m2
00:44 51.0 °F 50.0 °F 29.8 in South 6 mph 6 mph 95% 0.270 in 0.00 W/m2
00:48 51.0 °F 50.0 °F 29.8 in ENE 9 mph 3 mph 95% 0.280 in 0.00 W/m2
00:54 51.0 °F 50.0 °F 29.8 in Calm   9 mph 95% 0.270 in 0.00 W/m2
00:59 51.0 °F 50.0 °F 29.8 in SE 4 mph 1 mph 95% 0.270 in 0.00 W/m2
01:04 51.0 °F 50.0 °F 29.8 in East 1 mph 3 mph 95% 0.260 in 0.00 W/m2
01:09 51.0 °F 49.0 °F 29.8 in SE 2 mph   95% 0.270 in 0.00 W/m2
01:14 51.0 °F 49.0 °F 29.8 in SE 2 mph 2 mph 95% 0.250 in 0.00 W/m2
01:19 51.0 °F 49.0 °F 29.8 in SW 11 mph 8 mph 95% 0.250 in 0.00 W/m2
01:24 51.0 °F 49.0 °F 29.8 in SSW 6 mph 10 mph 95% 0.240 in 0.00 W/m2
01:29 50.0 °F 49.0 °F 29.8 in WSW 7 mph 6 mph 95% 0.210 in 0.00 W/m2
01:34 50.0 °F 49.0 °F 29.8 in SW 4 mph 7 mph 95% 0.200 in 0.00 W/m2
01:39 50.0 °F 49.0 °F 29.8 in SW 4 mph 2 mph 95% 0.190 in 0.00 W/m2
01:44 50.0 °F 49.0 °F 29.8 in North 7 mph 3 mph 95% 0.180 in 0.00 W/m2
01:49 50.0 °F 49.0 °F 29.8 in North 7 mph 7 mph 95% 0.170 in 0.00 W/m2
01:54 50.0 °F 49.0 °F 29.8 in North 6 mph 3 mph 95% 0.180 in 0.00 W/m2
01:59 50.0 °F 49.0 °F 29.8 in North 4 mph 6 mph 95% 0.180 in 0.00 W/m2
02:04 50.0 °F 49.0 °F 29.8 in West 6 mph 4 mph 95% 0.180 in 0.00 W/m2
02:09 50.0 °F 49.0 °F 29.8 in ENE 5 mph 6 mph 95% 0.180 in 0.00 W/m2
02:14 50.0 °F 49.0 °F 29.8 in ENE 7 mph 7 mph 95% 0.190 in 0.00 W/m2
02:19 50.0 °F 49.0 °F 29.8 in ENE 7 mph 7 mph 95% 0.200 in 0.00 W/m2
02:24 50.0 °F 48.0 °F 29.8 in ENE 6 mph 6 mph 95% 0.210 in 0.00 W/m2
02:29 50.0 °F 48.0 °F 29.8 in SSE 6 mph 6 mph 95% 0.230 in 0.00 W/m2
02:34 50.0 °F 48.0 °F 29.8 in East 4 mph 6 mph 95% 0.250 in 0.00 W/m2
02:39 50.0 °F 48.0 °F 29.8 in ESE 2 mph 3 mph 95% 0.270 in 0.00 W/m2
02:44 50.0 °F 48.0 °F 29.8 in Calm   2 mph 95% 0.260 in 0.00 W/m2
02:49 50.0 °F 48.0 °F 29.8 in ESE 2 mph 1 mph 95% 0.260 in 0.00 W/m2
02:53 50.0 °F 48.0 °F 29.8 in Calm   2 mph 95% 0.250 in 0.00 W/m2
02:59 50.0 °F 48.0 °F 29.8 in ENE 6 mph 3 mph 95% 0.230 in 0.00 W/m2
03:04 50.0 °F 48.0 °F 29.8 in ENE 4 mph 6 mph 95% 0.220 in 0.00 W/m2
03:09 50.0 °F 48.0 °F 29.8 in East 6 mph 5 mph 95% 0.210 in 0.00 W/m2
03:14 50.0 °F 48.0 °F 29.7 in East 2 mph 6 mph 95% 0.190 in 0.00 W/m2
03:19 50.0 °F 48.0 °F 29.7 in East 9 mph 5 mph 95% 0.190 in 0.00 W/m2
03:24 50.0 °F 48.0 °F 29.7 in East 9 mph 9 mph 95% 0.190 in 0.00 W/m2
03:29 49.0 °F 48.0 °F 29.7 in ENE 7 mph 7 mph 95% 0.170 in 0.00 W/m2
03:34 49.0 °F 48.0 °F 29.7 in ENE 11 mph 7 mph 95% 0.160 in 0.00 W/m2
03:39 49.0 °F 48.0 °F 29.7 in ENE 13 mph 10 mph 95% 0.140 in 0.00 W/m2
03:44 49.0 °F 48.0 °F 29.7 in ENE 7 mph 13 mph 95% 0.140 in 0.00 W/m2
03:49 49.0 °F 48.0 °F 29.7 in ENE 7 mph 7 mph 95% 0.140 in 0.00 W/m2
03:54 49.0 °F 48.0 °F 29.7 in ESE 7 mph 7 mph 95% 0.140 in 0.00 W/m2
03:58 50.0 °F 48.0 °F 29.7 in SSE 13 mph 7 mph 95% 0.140 in 0.00 W/m2
04:04 50.0 °F 48.0 °F 29.7 in NE 6 mph 13 mph 95% 0.150 in 0.00 W/m2
04:09 50.0 °F 48.0 °F 29.7 in SE 7 mph 6 mph 95% 0.150 in 0.00 W/m2
04:14 50.0 °F 48.0 °F 29.7 in NE 7 mph 7 mph 95% 0.150 in 0.00 W/m2
04:19 50.0 °F 48.0 °F 29.7 in SE 7 mph 6 mph 95% 0.150 in 0.00 W/m2
04:24 50.0 °F 48.0 °F 29.7 in ENE 6 mph 7 mph 95% 0.140 in 0.00 W/m2
04:29 50.0 °F 48.0 °F 29.7 in ESE 19 mph 9 mph 95% 0.130 in 0.00 W/m2
04:34 49.0 °F 48.0 °F 29.7 in East 20 mph 20 mph 95% 0.130 in 0.00 W/m2
04:39 49.0 °F 48.0 °F 29.7 in ENE 7 mph 9 mph 95% 0.130 in 0.00 W/m2
04:44 49.0 °F 48.0 °F 29.7 in East 6 mph 7 mph 95% 0.130 in 0.00 W/m2
04:49 49.0 °F 48.0 °F 29.7 in ENE 4 mph 6 mph 95% 0.130 in 0.00 W/m2
04:54 49.0 °F 48.0 °F 29.7 in East 2 mph 3 mph 95% 0.130 in 0.00 W/m2
04:59 49.0 °F 48.0 °F 29.7 in ESE 4 mph 2 mph 95% 0.120 in 0.00 W/m2
05:04 49.0 °F 48.0 °F 29.7 in SSE 6 mph 3 mph 95% 0.130 in 0.00 W/m2
05:09 49.0 °F 48.0 °F 29.7 in WSW 6 mph 6 mph 95% 0.130 in 0.00 W/m2
05:14 49.0 °F 48.0 °F 29.7 in WSW 2 mph 6 mph 95% 0.140 in 0.00 W/m2
05:19 49.0 °F 48.0 °F 29.7 in SSE 4 mph 2 mph 95% 0.140 in 0.00 W/m2
05:24 49.0 °F 48.0 °F 29.7 in ESE 5 mph 3 mph 95% 0.150 in 0.00 W/m2
05:29 49.0 °F 48.0 °F 29.7 in ENE 6 mph 6 mph 95% 0.150 in 0.00 W/m2
05:34 49.0 °F 48.0 °F 29.7 in ENE 2 mph 2 mph 95% 0.150 in 0.00 W/m2
05:39 49.0 °F 48.0 °F 29.7 in Calm   2 mph 95% 0.150 in 0.00 W/m2
05:44 49.0 °F 48.0 °F 29.7 in SSE 6 mph 1 mph 95% 0.150 in 0.00 W/m2
05:49 49.0 °F 48.0 °F 29.7 in SSE 2 mph 6 mph 95% 0.150 in 0.00 W/m2
05:54 49.0 °F 48.0 °F 29.7 in SSE 2 mph 2 mph 95% 0.150 in 0.00 W/m2
05:59 49.0 °F 48.0 °F 29.7 in ENE 4 mph 2 mph 95% 0.160 in 0.00 W/m2
06:04 49.0 °F 48.0 °F 29.7 in SE 7 mph 7 mph 95% 0.160 in 0.00 W/m2
06:09 49.0 °F 48.0 °F 29.7 in South 9 mph 7 mph 95% 0.150 in 0.00 W/m2
06:14 49.0 °F 48.0 °F 29.7 in ESE 9 mph 9 mph 95% 0.150 in 0.00 W/m2
06:19 49.0 °F 48.0 °F 29.7 in West 11 mph 9 mph 95% 0.150 in 0.00 W/m2
06:24 49.0 °F 48.0 °F 29.7 in NNE 9 mph 10 mph 95% 0.150 in 0.00 W/m2
06:29 49.0 °F 48.0 °F 29.7 in SSW 9 mph 9 mph 95% 0.160 in 0.00 W/m2
06:34 49.0 °F 48.0 °F 29.7 in SE 4 mph 9 mph 95% 0.180 in 0.00 W/m2
06:39 49.0 °F 48.0 °F 29.7 in SSE 6 mph 3 mph 95% 0.200 in 0.00 W/m2
06:44 49.0 °F 48.0 °F 29.7 in South 9 mph 9 mph 95% 0.220 in 0.00 W/m2
06:49 49.0 °F 48.0 °F 29.7 in ESE 6 mph 9 mph 95% 0.230 in 0.00 W/m2
06:54 49.0 °F 48.0 °F 29.7 in ESE 4 mph 6 mph 95% 0.230 in 0.00 W/m2
06:59 49.0 °F 48.0 °F 29.7 in East 18 mph 11 mph 95% 0.230 in 0.00 W/m2
07:04 49.0 °F 48.0 °F 29.7 in ESE 17 mph 17 mph 95% 0.240 in 0.00 W/m2
07:09 49.0 °F 48.0 °F 29.7 in SSE 9 mph 7 mph 95% 0.260 in 0.00 W/m2
07:14 49.0 °F 48.0 °F 29.7 in South 6 mph 9 mph 95% 0.270 in 0.00 W/m2
07:19 49.0 °F 48.0 °F 29.7 in SSE 18 mph 12 mph 95% 0.280 in 0.00 W/m2
07:24 49.0 °F 48.0 °F 29.8 in SSW 11 mph 17 mph 95% 0.290 in 0.00 W/m2
07:29 49.0 °F 48.0 °F 29.8 in SSE 7 mph 10 mph 95% 0.300 in 0.00 W/m2
07:34 49.0 °F 48.0 °F 29.8 in South 7 mph 7 mph 95% 0.300 in 0.00 W/m2
07:39 49.0 °F 48.0 °F 29.8 in SSW 7 mph 7 mph 95% 0.310 in 0.00 W/m2
07:44 49.0 °F 48.0 °F 29.8 in SSW 7 mph 7 mph 95% 0.290 in 0.00 W/m2
07:49 49.0 °F 48.0 °F 29.8 in SSE 16 mph 10 mph 95% 0.270 in 0.00 W/m2
07:54 49.0 °F 48.0 °F 29.8 in SSW 16 mph 16 mph 95% 0.290 in 0.00 W/m2
07:59 49.0 °F 48.0 °F 29.8 in South 9 mph 10 mph 95% 0.290 in 0.00 W/m2
08:04 49.0 °F 48.0 °F 29.8 in South 6 mph 7 mph 95% 0.270 in 0.00 W/m2
08:09 49.0 °F 48.0 °F 29.8 in East 7 mph 6 mph 95% 0.250 in 0.00 W/m2
08:14 49.0 °F 48.0 °F 29.8 in South 7 mph 7 mph 95% 0.220 in 7.00 W/m2
08:19 49.0 °F 48.0 °F 29.8 in South 7 mph 6 mph 95% 0.190 in 7.00 W/m2
08:24 49.0 °F 48.0 °F 29.8 in SSW 7 mph 7 mph 95% 0.180 in 7.00 W/m2
08:29 49.0 °F 48.0 °F 29.8 in SSW 9 mph 7 mph 95% 0.140 in 7.00 W/m2
08:34 49.0 °F 48.0 °F 29.8 in South 13 mph 9 mph 95% 0.130 in 14.00 W/m2
08:39 49.0 °F 48.0 °F 29.8 in South 7 mph 13 mph 95% 0.090 in 12.00 W/m2
08:44 49.0 °F 48.0 °F 29.8 in South 9 mph 7 mph 95% 0.070 in 14.00 W/m2
08:49 49.0 °F 48.0 °F 29.8 in SSE 9 mph 9 mph 95% 0.060 in 19.00 W/m2
08:54 49.0 °F 48.0 °F 29.8 in SSW 5 mph 7 mph 95% 0.030 in 16.00 W/m2
08:59 49.0 °F 48.0 °F 29.8 in SW 4 mph 3 mph 95% 0.010 in 16.00 W/m2
09:04 49.0 °F 48.0 °F 29.8 in SW 4 mph 3 mph 95% 0.010 in 14.00 W/m2
09:09 49.0 °F 48.0 °F 29.8 in SW 4 mph 3 mph 95% 0.010 in 14.00 W/m2
09:14 49.0 °F 48.0 °F 29.8 in SW 4 mph 2 mph 95% 0.020 in 11.00 W/m2
09:19 49.0 °F 48.0 °F 29.8 in South 4 mph 3 mph 95% 0.030 in 12.00 W/m2
09:24 49.0 °F 48.0 °F 29.8 in Calm   3 mph 95% 0.030 in 26.00 W/m2
09:29 49.0 °F 48.0 °F 29.8 in South 4 mph 2 mph 95% 0.030 in 30.00 W/m2
09:34 49.0 °F 48.0 °F 29.8 in South 4 mph 3 mph 95% 0.030 in 28.00 W/m2
09:39 49.0 °F 48.0 °F 29.8 in South 2 mph 3 mph 95% 0.020 in 40.00 W/m2
09:44 49.0 °F 48.0 °F 29.8 in Calm   2 mph 95% 0.020 in 65.00 W/m2
09:49 49.0 °F 48.0 °F 29.8 in Calm     95% 0.020 in 86.00 W/m2
09:54 49.0 °F 48.0 °F 29.8 in Calm     95% 0.020 in 74.00 W/m2
09:59 49.0 °F 48.0 °F 29.9 in Calm     95% 0.020 in 67.00 W/m2
10:04 49.0 °F 48.0 °F 29.9 in South 4 mph 3 mph 95% 0.020 in 63.00 W/m2
10:08 50.0 °F 48.0 °F 29.9 in South 2 mph 2 mph 95% 0.020 in 79.00 W/m2
10:14 50.0 °F 48.0 °F 29.9 in South 4 mph 1 mph 95% 0.020 in 81.00 W/m2
10:19 50.0 °F 48.0 °F 29.9 in South 6 mph 4 mph 95% 0.010 in 179.00 W/m2
10:24 50.0 °F 48.0 °F 29.9 in Calm   6 mph 95% 0.000 in 206.00 W/m2
10:29 50.0 °F 49.0 °F 29.9 in South 2 mph   95% 0.000 in 188.00 W/m2
10:34 50.0 °F 49.0 °F 29.9 in South 5 mph 2 mph 95% 0.000 in 241.00 W/m2
10:39 50.0 °F 49.0 °F 29.9 in WSW 6 mph 6 mph 95% 0.000 in 301.00 W/m2
10:44 50.0 °F 49.0 °F 29.9 in West 2 mph 6 mph 95% 0.000 in 251.00 W/m2
10:49 51.0 °F 49.0 °F 29.9 in West 2 mph 2 mph 95% 0.000 in 234.00 W/m2
10:54 51.0 °F 49.0 °F 29.9 in Calm   2 mph 95% 0.000 in 234.00 W/m2
10:59 51.0 °F 49.0 °F 29.9 in WSW 4 mph 2 mph 95% 0.000 in 149.00 W/m2
11:04 51.0 °F 49.0 °F 29.9 in SSW 6 mph 3 mph 95% 0.000 in 598.00 W/m2
11:09 51.0 °F 49.0 °F 29.9 in SW 9 mph 9 mph 95% 0.000 in 617.00 W/m2
11:14 51.0 °F 49.0 °F 29.9 in SSE 7 mph 9 mph 95% 0.000 in 640.00 W/m2
11:19 51.0 °F 50.0 °F 29.9 in South 7 mph 7 mph 95% 0.000 in 536.00 W/m2
11:24 51.0 °F 50.0 °F 29.9 in South 11 mph 7 mph 95% 0.000 in 805.00 W/m2
11:29 51.0 °F 50.0 °F 29.9 in SSE 10 mph 10 mph 95% 0.000 in 798.00 W/m2
11:34 51.0 °F 50.0 °F 29.9 in SSE 6 mph 6 mph 95% 0.000 in 701.00 W/m2
11:39 51.0 °F 50.0 °F 29.9 in South 9 mph 6 mph 95% 0.000 in 714.00 W/m2
11:44 51.0 °F 50.0 °F 29.9 in South 9 mph 9 mph 95% 0.000 in 721.00 W/m2
11:49 51.0 °F 50.0 °F 29.9 in SSE 9 mph 9 mph 95% 0.000 in 715.00 W/m2
11:54 51.0 °F 50.0 °F 29.9 in South 11 mph 9 mph 95% 0.000 in 791.00 W/m2
11:59 52.0 °F 50.0 °F 29.9 in SSW 7 mph 10 mph 95% 0.000 in 761.00 W/m2
12:04 52.0 °F 50.0 °F 29.9 in SSW 9 mph 7 mph 95% 0.000 in 761.00 W/m2
12:09 51.0 °F 50.0 °F 29.9 in SW 11 mph 6 mph 95% 0.000 in 742.00 W/m2
12:14 52.0 °F 50.0 °F 29.9 in South 6 mph 10 mph 94% 0.000 in 737.00 W/m2
12:19 52.0 °F 50.0 °F 29.9 in SSW 6 mph 6 mph 94% 0.000 in 188.00 W/m2
12:24 52.0 °F 50.0 °F 29.9 in South 4 mph 6 mph 93% 0.000 in 387.00 W/m2
12:29 52.0 °F 50.0 °F 29.9 in South 4 mph 3 mph 93% 0.000 in 867.00 W/m2
12:34 53.0 °F 51.0 °F 29.9 in South 11 mph 6 mph 93% 0.000 in 863.00 W/m2
12:39 53.0 °F 51.0 °F 29.9 in North 7 mph 10 mph 92% 0.000 in 877.00 W/m2
12:44 54.0 °F 51.0 °F 29.9 in SSW 6 mph 7 mph 91% 0.000 in 879.00 W/m2
12:49 54.0 °F 51.0 °F 29.9 in SSW 13 mph 12 mph 89% 0.000 in 868.00 W/m2
12:54 55.0 °F 51.0 °F 29.9 in SSW 13 mph 13 mph 86% 0.000 in 837.00 W/m2
12:59 55.0 °F 51.0 °F 29.9 in SW 11 mph 13 mph 86% 0.000 in 831.00 W/m2
13:04 55.0 °F 50.0 °F 29.9 in SSW 10 mph 10 mph 84% 0.000 in 817.00 W/m2
13:09 55.0 °F 50.0 °F 29.9 in SE 9 mph 9 mph 82% 0.000 in 817.00 W/m2
13:14 56.0 °F 50.0 °F 29.9 in SSW 11 mph 9 mph 82% 0.000 in 726.00 W/m2
13:19 56.0 °F 50.0 °F 29.9 in South 7 mph 10 mph 81% 0.000 in 694.00 W/m2
13:24 56.0 °F 50.0 °F 29.9 in ENE 6 mph 7 mph 81% 0.000 in 77.00 W/m2
13:29 56.0 °F 50.0 °F 29.9 in SSE 7 mph 6 mph 81% 0.000 in 70.00 W/m2
13:34 55.0 °F 49.0 °F 29.9 in South 2 mph 7 mph 80% 0.000 in 100.00 W/m2
13:39 55.0 °F 49.0 °F 29.9 in SSW 7 mph 4 mph 80% 0.000 in 158.00 W/m2
13:44 55.0 °F 49.0 °F 29.9 in SW 11 mph 9 mph 81% 0.000 in 297.00 W/m2
13:49 55.0 °F 49.0 °F 29.9 in SSW 13 mph 10 mph 81% 0.000 in 301.00 W/m2
13:54 55.0 °F 48.0 °F 29.9 in SSW 9 mph 13 mph 79% 0.000 in 889.00 W/m2
13:59 55.0 °F 48.0 °F 29.9 in SW 9 mph 7 mph 79% 0.000 in 816.00 W/m2
14:04 56.0 °F 48.0 °F 29.9 in SSW 12 mph 11 mph 76% 0.000 in 749.00 W/m2
14:09 56.0 °F 48.0 °F 29.9 in SSW 13 mph 13 mph 74% 0.000 in 715.00 W/m2
14:14 56.0 °F 47.0 °F 29.9 in SW 11 mph 13 mph 73% 0.000 in 130.00 W/m2
14:19 56.0 °F 47.0 °F 29.9 in SSW 6 mph 10 mph 73% 0.000 in 656.00 W/m2
14:24 56.0 °F 47.0 °F 29.9 in SW 7 mph 7 mph 72% 0.000 in 656.00 W/m2
14:29 56.0 °F 46.0 °F 29.9 in South 13 mph 11 mph 70% 0.000 in 626.00 W/m2
14:34 56.0 °F 46.0 °F 29.9 in South 16 mph 13 mph 70% 0.000 in 628.00 W/m2
14:39 57.0 °F 46.0 °F 29.9 in SW 13 mph 16 mph 68% 0.000 in 622.00 W/m2
14:44 57.0 °F 47.0 °F 29.9 in SSE 6 mph 13 mph 70% 0.000 in 663.00 W/m2
14:49 57.0 °F 47.0 °F 29.9 in SW 9 mph 6 mph 68% 0.000 in 633.00 W/m2
14:54 58.0 °F 46.0 °F 29.9 in South 9 mph 9 mph 66% 0.000 in 643.00 W/m2
14:59 58.0 °F 46.0 °F 29.9 in South 11 mph 9 mph 64% 0.000 in 633.00 W/m2
15:04 58.0 °F 46.0 °F 29.9 in SSW 16 mph 10 mph 65% 0.000 in 508.00 W/m2
15:09 58.0 °F 46.0 °F 29.9 in SW 11 mph 16 mph 64% 0.000 in 541.00 W/m2
15:14 58.0 °F 46.0 °F 29.9 in SE 13 mph 10 mph 65% 0.000 in 62.00 W/m2
15:19 57.0 °F 45.0 °F 30.0 in South 9 mph 13 mph 64% 0.000 in 40.00 W/m2
15:24 57.0 °F 45.0 °F 30.0 in Calm   9 mph 65% 0.000 in 76.00 W/m2
15:29 57.0 °F 46.0 °F 30.0 in South 4 mph 1 mph 67% 0.000 in 127.00 W/m2
15:34 56.0 °F 45.0 °F 30.0 in South 4 mph 3 mph 66% 0.000 in 86.00 W/m2
15:39 56.0 °F 45.0 °F 30.0 in SW 6 mph 1 mph 66% 0.000 in 42.00 W/m2
15:44 56.0 °F 44.0 °F 30.0 in SW 6 mph 6 mph 66% 0.000 in 148.00 W/m2
15:49 55.0 °F 45.0 °F 30.0 in Calm   6 mph 67% 0.000 in 207.00 W/m2
15:54 55.0 °F 45.0 °F 30.0 in South 6 mph 3 mph 68% 0.000 in 176.00 W/m2
15:59 55.0 °F 45.0 °F 30.0 in SSW 7 mph 6 mph 68% 0.000 in 151.00 W/m2
16:04 55.0 °F 44.0 °F 30.0 in SSW 6 mph 7 mph 67% 0.000 in 109.00 W/m2
16:09 55.0 °F 45.0 °F 30.0 in South 7 mph 5 mph 69% 0.000 in 77.00 W/m2
16:14 55.0 °F 44.0 °F 30.0 in SW 6 mph 7 mph 66% 0.000 in 195.00 W/m2
16:19 55.0 °F 45.0 °F 30.0 in SE 6 mph 6 mph 68% 0.000 in 98.00 W/m2
16:24 55.0 °F 44.0 °F 30.0 in South 4 mph 6 mph 66% 0.000 in 67.00 W/m2
16:29 55.0 °F 45.0 °F 30.0 in SSW 4 mph 3 mph 69% 0.000 in 86.00 W/m2
16:34 55.0 °F 44.0 °F 30.0 in South 6 mph 3 mph 67% 0.000 in 176.00 W/m2
16:39 55.0 °F 44.0 °F 30.0 in Calm   6 mph 67% 0.000 in 183.00 W/m2
16:44 55.0 °F 45.0 °F 30.0 in South 7 mph 3 mph 68% 0.000 in 132.00 W/m2
16:49 55.0 °F 45.0 °F 30.0 in South 7 mph 7 mph 68% 0.000 in 111.00 W/m2
16:54 55.0 °F 45.0 °F 30.0 in Calm   2 mph 68% 0.000 in 76.00 W/m2
16:59 55.0 °F 45.0 °F 30.0 in SSW 6 mph 3 mph 68% 0.000 in 142.00 W/m2
17:04 55.0 °F 45.0 °F 30.0 in SSW 6 mph 6 mph 69% 0.000 in 162.00 W/m2
17:09 55.0 °F 45.0 °F 30.0 in SSW 7 mph 4 mph 69% 0.000 in 134.00 W/m2
17:14 55.0 °F 45.0 °F 30.0 in SW 4 mph 7 mph 68% 0.000 in 81.00 W/m2
17:19 55.0 °F 46.0 °F 30.0 in SSW 6 mph 3 mph 70% 0.000 in 63.00 W/m2
17:24 55.0 °F 46.0 °F 30.0 in South 6 mph 6 mph 71% 0.000 in 86.00 W/m2
17:29 55.0 °F 47.0 °F 30.0 in ESE 4 mph 6 mph 73% 0.000 in 86.00 W/m2
17:34 55.0 °F 47.0 °F 30.0 in SSE 4 mph 3 mph 73% 0.000 in 47.00 W/m2
17:39 55.0 °F 47.0 °F 30.0 in East 4 mph 3 mph 74% 0.000 in 23.00 W/m2
17:44 55.0 °F 46.0 °F 30.0 in East 4 mph 3 mph 74% 0.000 in 16.00 W/m2
17:49 55.0 °F 46.0 °F 30.0 in East 2 mph 3 mph 74% 0.000 in 11.00 W/m2
17:54 54.0 °F 46.0 °F 30.0 in ESE 2 mph 2 mph 74% 0.000 in 7.00 W/m2
17:59 54.0 °F 46.0 °F 30.0 in Calm   2 mph 75% 0.000 in 5.00 W/m2
18:04 54.0 °F 46.0 °F 30.0 in ENE 4 mph 1 mph 76% 0.000 in 5.00 W/m2
18:09 53.0 °F 46.0 °F 30.0 in NE 4 mph 3 mph 76% 0.000 in 0.00 W/m2
18:14 53.0 °F 46.0 °F 30.0 in ENE 2 mph 1 mph 76% 0.000 in 0.00 W/m2
18:19 53.0 °F 46.0 °F 30.0 in Calm   2 mph 77% 0.000 in 0.00 W/m2
18:24 53.0 °F 46.0 °F 30.0 in Calm     78% 0.000 in 0.00 W/m2
18:29 52.0 °F 46.0 °F 30.0 in Calm     78% 0.000 in 0.00 W/m2
18:34 52.0 °F 45.0 °F 30.0 in Calm     79% 0.000 in 0.00 W/m2
18:39 52.0 °F 45.0 °F 30.0 in Calm     79% 0.000 in 0.00 W/m2
18:44 51.0 °F 45.0 °F 30.0 in Calm     80% 0.000 in 0.00 W/m2
18:49 51.0 °F 45.0 °F 30.0 in Calm     80% 0.000 in 0.00 W/m2
18:54 51.0 °F 45.0 °F 30.0 in Calm     81% 0.000 in 0.00 W/m2
18:59 51.0 °F 45.0 °F 30.1 in ENE 4 mph 2 mph 81% 0.000 in 0.00 W/m2
19:04 51.0 °F 45.0 °F 30.1 in ENE 4 mph 3 mph 82% 0.000 in 0.00 W/m2
19:09 50.0 °F 45.0 °F 30.1 in ENE 4 mph 2 mph 82% 0.000 in 0.00 W/m2
19:14 50.0 °F 45.0 °F 30.1 in East 6 mph 3 mph 82% 0.000 in 0.00 W/m2
19:18 50.0 °F 45.0 °F 30.1 in East 4 mph 6 mph 83% 0.000 in 0.00 W/m2
19:24 50.0 °F 45.0 °F 30.1 in NE 4 mph 3 mph 83% 0.000 in 0.00 W/m2
19:29 50.0 °F 45.0 °F 30.1 in ENE 4 mph 3 mph 83% 0.000 in 0.00 W/m2
19:34 50.0 °F 45.0 °F 30.1 in Calm   3 mph 83% 0.000 in 0.00 W/m2
19:39 50.0 °F 45.0 °F 30.1 in Calm     83% 0.000 in 0.00 W/m2
19:44 50.0 °F 45.0 °F 30.1 in Calm     84% 0.000 in 0.00 W/m2
19:49 50.0 °F 45.0 °F 30.1 in Calm     84% 0.000 in 0.00 W/m2
19:54 49.0 °F 45.0 °F 30.1 in ENE 2 mph 1 mph 84% 0.000 in 0.00 W/m2
19:59 49.0 °F 45.0 °F 30.1 in NE 7 mph 3 mph 84% 0.000 in 0.00 W/m2
20:04 49.0 °F 44.0 °F 30.1 in NE 2 mph 7 mph 83% 0.000 in 0.00 W/m2
20:09 49.0 °F 44.0 °F 30.1 in Calm   2 mph 83% 0.000 in 0.00 W/m2
20:14 49.0 °F 44.0 °F 30.1 in Calm     83% 0.000 in 0.00 W/m2
20:19 49.0 °F 44.0 °F 30.1 in Calm     84% 0.000 in 0.00 W/m2
20:24 49.0 °F 44.0 °F 30.1 in Calm     84% 0.000 in 0.00 W/m2
20:29 49.0 °F 44.0 °F 30.1 in Calm     84% 0.000 in 0.00 W/m2
20:34 49.0 °F 44.0 °F 30.1 in Calm     84% 0.000 in 0.00 W/m2
20:39 49.0 °F 44.0 °F 30.1 in Calm     84% 0.000 in 0.00 W/m2
20:44 49.0 °F 44.0 °F 30.1 in Calm     84% 0.000 in 0.00 W/m2
20:49 48.0 °F 44.0 °F 30.1 in Calm     84% 0.000 in 0.00 W/m2
20:54 48.0 °F 44.0 °F 30.1 in Calm     85% 0.000 in 0.00 W/m2
20:59 48.0 °F 44.0 °F 30.1 in Calm     84% 0.000 in 0.00 W/m2
21:04 48.0 °F 44.0 °F 30.1 in Calm     84% 0.000 in 0.00 W/m2
21:09 48.0 °F 44.0 °F 30.1 in Calm     84% 0.000 in 0.00 W/m2
21:14 48.0 °F 43.0 °F 30.1 in Calm     84% 0.000 in 0.00 W/m2
21:19 48.0 °F 43.0 °F 30.1 in Calm     84% 0.000 in 0.00 W/m2
21:24 48.0 °F 43.0 °F 30.1 in Calm     84% 0.000 in 0.00 W/m2
21:29 48.0 °F 43.0 °F 30.1 in Calm     85% 0.000 in 0.00 W/m2
21:34 47.0 °F 43.0 °F 30.1 in Calm     85% 0.000 in 0.00 W/m2
21:39 47.0 °F 43.0 °F 30.1 in Calm     85% 0.000 in 0.00 W/m2
21:44 47.0 °F 43.0 °F 30.1 in Calm     86% 0.000 in 0.00 W/m2
21:49 47.0 °F 43.0 °F 30.1 in Calm     86% 0.000 in 0.00 W/m2
21:54 47.0 °F 43.0 °F 30.1 in NE 2 mph 1 mph 86% 0.000 in 0.00 W/m2
21:59 47.0 °F 43.0 °F 30.1 in Calm   2 mph 86% 0.000 in 0.00 W/m2
22:04 47.0 °F 43.0 °F 30.1 in Calm     86% 0.000 in 0.00 W/m2
22:09 47.0 °F 43.0 °F 30.1 in Calm     86% 0.000 in 0.00 W/m2
22:14 47.0 °F 43.0 °F 30.1 in Calm     87% 0.000 in 0.00 W/m2
22:19 47.0 °F 43.0 °F 30.1 in Calm     87% 0.000 in 0.00 W/m2
22:24 47.0 °F 43.0 °F 30.1 in Calm     87% 0.000 in 0.00 W/m2
22:29 46.0 °F 43.0 °F 30.1 in Calm     87% 0.000 in 0.00 W/m2
22:34 46.0 °F 43.0 °F 30.1 in Calm     88% 0.000 in 0.00 W/m2
22:39 46.0 °F 43.0 °F 30.1 in NE 2 mph   88% 0.000 in 0.00 W/m2
El Dorado Weather
Compliments of Weather Underground - 2 mb